Des Moines, IA

9:53 AM CDT on July 20, 2017 (GMT -0500)
Des Moines International

Weather History for KDSM - October, 2011

Change the Weather History Date:

Friday, October 28, 2011

  Actual Average Record
Temperature  
Mean Temperature 45 °F 48 °F  
Max Temperature 58 °F 58 °F 84 °F (1927)
Min Temperature 32 °F 39 °F 7 °F (1925)
Degree Days  
Heating Degree Days 20 17  
Month to date heating degree days 240 332  
Since 1 July heating degree days 356 432  
Cooling Degree Days 0 0  
Month to date cooling degree days 38 11  
Year to date cooling degree days 1353 1063  
Moisture  
Dew Point 24 °F    
Average Humidity 46    
Maximum Humidity 69    
Minimum Humidity 22    
Precipitation  
Precipitation 0.00 in 0.08 in 1.21 in (1982)
Month to date precipitation 1.23 2.39  
Year to date precipitation 31.88 32.16  
Snow  
Snow 0.00 in 0.00 in 0.20 in (1913)
Month to date snowfall 0.0 0.3  
Since 1 July snowfall 0.0 0.3  
Since 1 September snowfall 0.0 0.3  
Snow Depth 0.00 in    
Sea Level Pressure  
Sea Level Pressure 30.14 in    
Wind  
Wind Speed 8 mph (West)    
Max Wind Speed 25 mph    
Max Gust Speed 31 mph    
Visibility 10 miles    
Events      
T = Trace of Precipitation, MM = Missing Value Source: NWS Daily Summary

Daily Weather History Graph

Daily Weather History Graph

Search for Another Location

Airport or City:

Trip Planner

Search our weather history database for the weather conditions in past years. The results will help you decide how hot, cold, wet, or windy it might be!

Date:

Astronomy

Oct. 28, 2011 Rise Set
Actual Time 7:41 AM CDT 6:14 PM CDT
Civil Twilight 7:12 AM CDT 6:43 PM CDT
Nautical Twilight 6:40 AM CDT 7:15 PM CDT
Astronomical Twilight 6:08 AM CDT 7:48 PM CDT
Moon 10:00 AM CDT (10/28) 7:36 PM CDT (10/28)
Length of Visible Light 11h 30m
Length of Day
10h 33m
Waxing Crescent, 5% of the Moon is Illuminated
Oct 28
Waxing Crescent
Nov 2
First Quarter
Nov 10
Full
Nov 18
Last Quarter
Nov 25
New

Hourly Weather History & Observations

Time (CDT) Temp. Windchill Dew Point Humidity Pressure Visibility Wind Dir Wind Speed Gust Speed Precip Events Conditions
12:54 AM 39.9 °F 37.8 °F 27.0 °F 60% 30.17 in 10.0 mi SSW 3.5 mph - N/A   Mostly Cloudy
1:54 AM 39.9 °F - 25.0 °F 55% 30.17 in 10.0 mi Calm Calm - N/A   Clear
2:54 AM 37.4 °F 34.9 °F 26.6 °F 65% 30.15 in 10.0 mi South 3.5 mph - N/A   Clear
3:54 AM 37.0 °F 34.5 °F 25.0 °F 62% 30.16 in 10.0 mi SSW 3.5 mph - N/A   Clear
4:54 AM 35.6 °F 31.7 °F 24.8 °F 65% 30.14 in 10.0 mi South 4.6 mph - N/A   Clear
5:54 AM 35.1 °F 31.0 °F 25.0 °F 67% 30.16 in 10.0 mi SSW 4.6 mph - N/A   Clear
6:54 AM 34.0 °F 29.8 °F 24.1 °F 67% 30.15 in 10.0 mi South 4.6 mph - N/A   Partly Cloudy
7:54 AM 34.0 °F 29.8 °F 24.1 °F 67% 30.16 in 10.0 mi SSW 4.6 mph - N/A   Partly Cloudy
8:54 AM 37.9 °F 35.5 °F 27.0 °F 65% 30.15 in 10.0 mi SSW 3.5 mph - N/A   Partly Cloudy
9:54 AM 46.0 °F 43.1 °F 28.9 °F 51% 30.13 in 10.0 mi SSW 5.8 mph - N/A   Partly Cloudy
10:54 AM 52.0 °F - 28.0 °F 40% 30.14 in 10.0 mi West 15.0 mph - N/A   Partly Cloudy
11:54 AM 53.6 °F - 26.6 °F 35% 30.12 in 10.0 mi WNW 10.4 mph - N/A   Partly Cloudy
12:54 PM 55.9 °F - 28.9 °F 36% 30.12 in 10.0 mi WNW 15.0 mph - N/A   Scattered Clouds
1:54 PM 57.0 °F - 30.0 °F 36% 30.10 in 10.0 mi WNW 16.1 mph 25.3 mph N/A   Partly Cloudy
2:54 PM 57.9 °F - 25.0 °F 28% 30.10 in 10.0 mi NNW 15.0 mph 27.6 mph N/A   Partly Cloudy
3:54 PM 57.0 °F - 19.9 °F 24% 30.10 in 10.0 mi NW 15.0 mph 24.2 mph N/A   Partly Cloudy
4:54 PM 55.9 °F - 18.0 °F 23% 30.11 in 10.0 mi NNW 20.7 mph 27.6 mph N/A   Partly Cloudy
5:54 PM 54.0 °F - 19.0 °F 25% 30.12 in 10.0 mi NNW 13.8 mph 18.4 mph N/A   Partly Cloudy
6:54 PM 48.0 °F - 19.9 °F 33% 30.14 in 10.0 mi NW 5.8 mph - N/A   Clear
7:54 PM 48.0 °F - 19.9 °F 33% 30.15 in 10.0 mi WNW 4.6 mph - N/A   Clear
8:54 PM 45.0 °F 43.5 °F 19.9 °F 37% 30.14 in 10.0 mi West 3.5 mph - N/A   Clear
9:54 PM 43.0 °F - 21.0 °F 42% 30.14 in 10.0 mi Calm Calm - N/A   Clear
10:54 PM 41.0 °F 37.1 °F 21.9 °F 47% 30.14 in 10.0 mi WNW 5.8 mph - N/A   Clear
11:54 PM 39.9 °F 35.8 °F 21.0 °F 47% 30.14 in 10.0 mi West 5.8 mph - N/A   Clear